Petersburg, AK

12:07 PM AKDT on August 21, 2017 (GMT -0800)
Johnson Petersburg

Weather History for PAPG - February, 2012

Change the Weather History Date:

Wednesday, February 8, 2012

  Actual Average Record
Temperature  
Mean Temperature 42 °F -  
Max Temperature 51 °F 35 °F 51 °F (2012)
Min Temperature 32 °F 27 °F -5 °F (1998)
Degree Days  
Heating Degree Days 24    
Moisture  
Dew Point 28 °F    
Average Humidity 60    
Maximum Humidity 93    
Minimum Humidity 35    
Precipitation  
Precipitation 0.00 in - - ()
Sea Level Pressure  
Sea Level Pressure 29.83 in    
Wind  
Wind Speed 3 mph (SE)    
Max Wind Speed 13 mph    
Max Gust Speed 20 mph    
Visibility 10 miles    
Events      
Averages and records for this station are not official NWS values.
T = Trace of Precipitation, MM = Missing Value Source: NWS Daily Summary

Daily Weather History Graph

Daily Weather History Graph

Search for Another Location

Airport or City:

Trip Planner

Search our weather history database for the weather conditions in past years. The results will help you decide how hot, cold, wet, or windy it might be!

Date:

Astronomy

Feb. 08, 2012 Rise Set
Actual Time 7:35 AM AKST 4:36 PM AKST
Civil Twilight 6:55 AM AKST 5:17 PM AKST
Nautical Twilight 6:10 AM AKST 6:02 PM AKST
Astronomical Twilight 5:26 AM AKST 6:46 PM AKST
Moon 6:33 PM AKST (2/8) 7:20 AM AKST (2/8)
Length of Visible Light 10h 22m
Length of Day
9h 00m
Full, 99% of the Moon is Illuminated
Feb 8
Full
Feb 14
Last Quarter
Feb 21
New
Feb 29
First Quarter
Mar 8
Full

Hourly Weather History & Observations

Time (AKST) Temp. Windchill Dew Point Humidity Pressure Visibility Wind Dir Wind Speed Gust Speed Precip Events Conditions
12:16 AM 33.8 °F - 30.2 °F 87% 29.78 in 10.0 mi Calm Calm - N/A   Overcast
12:36 AM 33.8 °F 30.8 °F 30.2 °F 87% 29.78 in 10.0 mi SSE 3.5 mph - N/A   Overcast
12:56 AM 32.0 °F - 30.2 °F 93% 29.78 in 10.0 mi Calm Calm - N/A   Overcast
1:16 AM 33.8 °F 29.6 °F 30.2 °F 87% 29.77 in 10.0 mi South 4.6 mph - N/A   Overcast
1:36 AM 33.8 °F - 30.2 °F 87% 29.78 in 10.0 mi Calm Calm - N/A   Overcast
1:56 AM 33.8 °F - 30.2 °F 87% 29.77 in 10.0 mi Calm Calm - N/A   Overcast
2:16 AM 33.8 °F 30.8 °F 30.2 °F 87% 29.78 in 10.0 mi South 3.5 mph - N/A   Overcast
2:36 AM 35.6 °F 32.8 °F 28.4 °F 75% 29.78 in 10.0 mi SSW 3.5 mph - N/A   Overcast
2:56 AM 33.8 °F 30.8 °F 28.4 °F 81% 29.78 in 10.0 mi SW 3.5 mph - N/A   Mostly Cloudy
3:16 AM 33.8 °F 30.8 °F 30.2 °F 87% 29.78 in 10.0 mi SSE 3.5 mph - N/A   Partly Cloudy
3:36 AM 33.8 °F - 28.4 °F 81% 29.77 in 10.0 mi Calm Calm - N/A   Partly Cloudy
3:56 AM 32.0 °F - 30.2 °F 93% 29.78 in 10.0 mi Calm Calm - N/A   Clear
4:16 AM 32.0 °F 28.7 °F 28.4 °F 87% 29.77 in 10.0 mi SW 3.5 mph - N/A   Partly Cloudy
4:36 AM 35.6 °F 32.8 °F 30.2 °F 81% 29.77 in 10.0 mi WSW 3.5 mph - N/A   Mostly Cloudy
4:56 AM 35.6 °F 32.8 °F 30.2 °F 81% 29.77 in 10.0 mi WNW 3.5 mph - N/A   Overcast
5:16 AM 35.6 °F - 30.2 °F 81% 29.78 in 10.0 mi Calm Calm - N/A   Overcast
5:36 AM 35.6 °F 32.8 °F 30.2 °F 81% 29.78 in 10.0 mi SSW 3.5 mph - N/A   Overcast
5:56 AM 37.4 °F 34.9 °F 30.2 °F 75% 29.78 in 10.0 mi NE 3.5 mph - N/A   Overcast
6:16 AM 37.4 °F 32.8 °F 30.2 °F 75% 29.78 in 10.0 mi WNW 5.8 mph - N/A   Overcast
6:36 AM 39.2 °F 37.0 °F 28.4 °F 65% 29.80 in 10.0 mi WNW 3.5 mph - N/A   Overcast
6:56 AM 39.2 °F - 28.4 °F 65% 29.80 in 10.0 mi Calm Calm - N/A   Overcast
7:16 AM 39.2 °F 35.0 °F 28.4 °F 65% 29.80 in 10.0 mi SSE 5.8 mph - N/A   Overcast
7:36 AM 39.2 °F - 28.4 °F 65% 29.81 in 10.0 mi Calm Calm - N/A   Overcast
7:56 AM 39.2 °F - 28.4 °F 65% 29.81 in 10.0 mi Calm Calm - N/A   Mostly Cloudy
8:16 AM 39.2 °F - 30.2 °F 70% 29.82 in 10.0 mi Calm Calm - N/A   Mostly Cloudy
8:36 AM 39.2 °F - 28.4 °F 65% 29.82 in 10.0 mi Calm Calm - N/A   Mostly Cloudy
8:56 AM 39.2 °F - 28.4 °F 65% 29.82 in 10.0 mi Calm Calm - N/A   Mostly Cloudy
9:16 AM 42.8 °F - 26.6 °F 53% 29.83 in 10.0 mi Calm Calm - N/A   Mostly Cloudy
9:36 AM 44.6 °F 43.1 °F 26.6 °F 49% 29.83 in 10.0 mi NE 3.5 mph - N/A   Mostly Cloudy
9:56 AM 44.6 °F 42.2 °F 26.6 °F 49% 29.83 in 10.0 mi NE 4.6 mph - N/A   Mostly Cloudy
10:16 AM 46.4 °F 44.3 °F 26.6 °F 46% 29.83 in 10.0 mi North 4.6 mph - N/A   Mostly Cloudy
10:36 AM 46.4 °F 44.3 °F 26.6 °F 46% 29.84 in 10.0 mi ENE 4.6 mph - N/A   Mostly Cloudy
10:56 AM 44.6 °F 40.2 °F 28.4 °F 53% 29.84 in 10.0 mi NE 8.1 mph - N/A   Mostly Cloudy
11:16 AM 46.4 °F 43.5 °F 26.6 °F 46% 29.83 in 10.0 mi NE 5.8 mph - N/A   Mostly Cloudy
11:36 AM 48.2 °F - 26.6 °F 43% 29.83 in 10.0 mi ESE 8.1 mph - N/A   Mostly Cloudy
11:56 AM 50.0 °F - 24.8 °F 37% 29.83 in 10.0 mi ENE 3.5 mph - N/A   Overcast
12:16 PM 50.0 °F - 24.8 °F 37% 29.83 in 10.0 mi SE 9.2 mph 18.4 mph N/A   Overcast
12:36 PM 51.8 °F - 24.8 °F 35% 29.83 in 10.0 mi SE 10.4 mph - N/A   Overcast
12:56 PM 51.8 °F - 24.8 °F 35% 29.84 in 10.0 mi South 8.1 mph 16.1 mph N/A   Overcast
1:16 PM 51.8 °F - 24.8 °F 35% 29.84 in 10.0 mi ESE 6.9 mph - N/A   Overcast
1:36 PM 51.8 °F - 24.8 °F 35% 29.85 in 10.0 mi SSE 8.1 mph - N/A   Overcast
1:56 PM 51.8 °F - 24.8 °F 35% 29.85 in 10.0 mi South 5.8 mph - N/A   Mostly Cloudy
2:16 PM 50.0 °F - 24.8 °F 37% 29.85 in 10.0 mi SE 3.5 mph - N/A   Mostly Cloudy
2:36 PM 50.0 °F - 24.8 °F 37% 29.86 in 10.0 mi SE 5.8 mph - N/A   Mostly Cloudy
2:56 PM 48.2 °F - 24.8 °F 40% 29.87 in 10.0 mi SE 9.2 mph - N/A   Overcast
3:16 PM 50.0 °F - 24.8 °F 37% 29.88 in 10.0 mi SSE 10.4 mph - N/A   Overcast
3:36 PM 50.0 °F - 24.8 °F 37% 29.89 in 10.0 mi SSE 8.1 mph 19.6 mph N/A   Overcast
3:56 PM 50.0 °F - 24.8 °F 37% 29.90 in 10.0 mi SSE 8.1 mph - N/A   Overcast
4:16 PM 48.2 °F - 26.6 °F 43% 29.91 in 10.0 mi SSE 8.1 mph 18.4 mph N/A   Overcast
4:36 PM 48.2 °F - 24.8 °F 40% 29.92 in 10.0 mi SE 6.9 mph 18.4 mph N/A   Overcast
4:56 PM 48.2 °F - 26.6 °F 43% 29.93 in 10.0 mi South 4.6 mph - N/A   Overcast
5:16 PM 48.2 °F - 26.6 °F 43% 29.95 in 10.0 mi SSE 12.7 mph 18.4 mph N/A   Overcast
5:36 PM 48.2 °F - 26.6 °F 43% 29.96 in 10.0 mi SE 5.8 mph - N/A   Overcast
5:56 PM 48.2 °F - 28.4 °F 46% 29.97 in 10.0 mi SSE 8.1 mph 17.3 mph N/A   Overcast
6:16 PM 48.2 °F - 28.4 °F 46% 29.99 in 10.0 mi SE 8.1 mph 18.4 mph N/A   Overcast
6:36 PM 48.2 °F - 30.2 °F 50% 30.00 in 10.0 mi ESE 6.9 mph 20.7 mph N/A   Overcast
6:56 PM 46.4 °F 42.9 °F 32.0 °F 57% 30.02 in 10.0 mi NW 6.9 mph - N/A   Overcast
7:16 PM 42.8 °F 38.6 °F 35.6 °F 76% 30.03 in 10.0 mi SSW 6.9 mph - N/A   Overcast
7:36 PM 42.8 °F 39.3 °F 35.6 °F 76% 30.03 in 10.0 mi SSW 5.8 mph - N/A   Overcast
7:56 PM 42.8 °F 39.3 °F 33.8 °F 70% 30.04 in 10.0 mi SSE 5.8 mph - N/A   Mostly Cloudy
8:16 PM 44.6 °F 43.1 °F 33.8 °F 66% 30.05 in 10.0 mi SSW 3.5 mph - N/A   Mostly Cloudy
8:56 PM 44.6 °F 42.2 °F 33.8 °F 66% 30.06 in 10.0 mi South 4.6 mph - N/A   Overcast
9:16 PM 44.6 °F 40.7 °F 33.8 °F 66% 30.07 in 10.0 mi SSE 6.9 mph - N/A   Overcast
9:36 PM 44.6 °F - 35.6 °F 71% 30.07 in 10.0 mi Calm Calm - N/A   Overcast
9:56 PM 42.8 °F 40.1 °F 33.8 °F 70% 30.09 in 10.0 mi SSW 4.6 mph - N/A   Mostly Cloudy
10:16 PM 39.2 °F - 33.8 °F 81% 30.10 in 10.0 mi Calm Calm - N/A   Overcast
10:36 PM 39.2 °F - 33.8 °F 81% 30.10 in 10.0 mi Calm Calm - N/A   Overcast
10:56 PM 39.2 °F - 33.8 °F 81% 30.10 in 10.0 mi Calm Calm - N/A   Overcast
11:16 PM 37.4 °F - 33.8 °F 87% 30.10 in 10.0 mi Calm Calm - N/A   Overcast
11:36 PM 37.4 °F 33.8 °F 33.8 °F 87% 30.11 in 10.0 mi WSW 4.6 mph - N/A   Overcast
11:56 PM 39.2 °F - 33.8 °F 81% 30.10 in 10.0 mi Calm Calm - N/A   Overcast